Simultaneous Nadir Overpasses (SNOs) Predictions

Prediction of SNOs between LANDSAT-8 and METOP-B Satellite Orbit:

Table of predicted SNOs for the next 14.0 days since TLE Epoch: 5/25/2019
Index Date (LANDSAT-8) Time (LANDSAT-8) Lat,Lon (LANDSAT-8) SZA (LANDSAT-8 ) Date (METOP-B) Time (METOP-B) Lat,Lon (METOP-B) SZA (METOP-B ) Distance(km) Time Diff (sec)
1 05/26/2019 00:30:49 81.14,-147.47 62.37 05/26/2019 00:29:40 81.14,-147.48 62.33 0.42 69
2 05/26/2019 01:20:15 -81.16, 20.54 117.59 05/26/2019 01:20:19 -81.16, 20.70 117.57 2.85 4
3 05/28/2019 20:05:05 81.13, -81.14 61.87 05/28/2019 20:04:02 81.13, -81.10 61.85 0.81 63
4 05/28/2019 20:54:31 -81.16, 86.89 118.08 05/28/2019 20:54:42 -81.15, 86.74 118.09 2.60 11
5 05/31/2019 15:39:21 81.15, -14.48 61.48 05/31/2019 15:38:24 81.15, -14.35 61.47 2.24 57
6 05/31/2019 16:28:48 -81.15, 153.21 118.52 05/31/2019 16:29:05 -81.15, 153.14 118.52 1.10 17
7 06/03/2019 11:13:38 81.14, 51.80 61.07 06/03/2019 11:12:48 81.13, 51.64 61.03 2.64 50
8 06/03/2019 12:03:04 -81.16,-140.14 118.87 06/03/2019 12:03:27 -81.16,-140.08 118.85 0.92 23
9 06/06/2019 06:47:53 81.15, 118.41 60.77 06/06/2019 06:47:09 81.14, 118.39 60.74 0.59 44




NCC Satellite Simultaneous Nadir Overpasses (SNOs) Prediction Service
